| time (UTC) | temp C | wind direction | speed KPH | gust KPH | rain 1hr cm | rain 24hr cm | rain mn cm | humidity % | barometer mb |
| 20260903200604 | 12 | 215 | 0.0 | 4.8 | 0.00 | 0.30 | 0.00 | 57 | 1010.5 |
| 20260903200104 | 12 | 217 | 0.0 | 4.8 | 0.00 | 0.33 | 0.00 | 59 | 1010.7 |
| 20260903195603 | 12 | 235 | 1.6 | 4.8 | 0.00 | 0.33 | 0.00 | 59 | 1010.6 |
| 20260903194603 | 12 | 151 | 0.0 | 4.8 | 0.00 | 0.36 | 0.00 | 60 | 1010.6 |
| 20260903194104 | 12 | 335 | 0.0 | 3.2 | 0.00 | 0.36 | 0.00 | 61 | 1010.6 |
| 20260903193604 | 12 | 240 | 0.0 | 3.2 | 0.00 | 0.36 | 0.00 | 62 | 1010.6 |
| 20260903192604 | 12 | 189 | 1.6 | 12.9 | 0.00 | 0.36 | 0.00 | 62 | 1010.8 |
| 20260903192104 | 12 | 254 | 0.0 | 1.6 | 0.00 | 0.38 | 0.00 | 63 | 1010.8 |
| 20260903191603 | 12 | 59 | 0.0 | 3.2 | 0.00 | 0.38 | 0.00 | 63 | 1010.9 |
| 20260903190603 | 12 | 158 | 0.0 | 4.8 | 0.00 | 0.41 | 0.00 | 62 | 1010.9 |
| 20260903190104 | 11 | 139 | 0.0 | 4.8 | 0.00 | 0.43 | 0.00 | 64 | 1011.0 |
| 20260903185603 | 12 | 138 | 1.6 | 4.8 | 0.00 | 0.43 | 0.00 | 66 | 1011.0 |
| 20260903185104 | 11 | 176 | 0.0 | 0.0 | 0.00 | 0.43 | 0.00 | 65 | 1011.0 |
| 20260903184603 | 11 | 174 | 0.0 | 0.0 | 0.00 | 0.46 | 0.00 | 68 | 1011.1 |
| 20260903184103 | 11 | 177 | 0.0 | 4.8 | 0.00 | 0.46 | 0.00 | 67 | 1011.1 |
| 20260903183103 | 11 | 200 | 0.0 | 4.8 | 0.00 | 0.46 | 0.00 | 68 | 1011.2 |
| 20260903182604 | 11 | 124 | 0.0 | 3.2 | 0.00 | 0.46 | 0.00 | 70 | 1011.1 |
| 20260903182104 | 11 | 160 | 0.0 | 0.0 | 0.00 | 0.46 | 0.00 | 71 | 1011.2 |
| 20260903181103 | 10 | 148 | 0.0 | 1.6 | 0.00 | 0.46 | 0.00 | 71 | 1011.1 |
| 20260903180604 | 10 | 244 | 0.0 | 4.8 | 0.00 | 0.46 | 0.00 | 73 | 1011.1 |
| 20260903180104 | 10 | 70 | 0.0 | 1.6 | 0.00 | 0.46 | 0.00 | 74 | 1011.1 |
| 20260903175604 | 10 | 216 | 0.0 | 3.2 | 0.00 | 0.46 | 0.00 | 74 | 1011.1 |
| 20260903175103 | 10 | 217 | 0.0 | 1.6 | 0.00 | 0.46 | 0.00 | 74 | 1011.0 |
| 20260903174604 | 10 | 194 | 0.0 | 0.0 | 0.00 | 0.46 | 0.00 | 76 | 1011.1 |
| 20260903174104 | 10 | 194 | 0.0 | 3.2 | 0.00 | 0.46 | 0.00 | 76 | 1011.0 |
| 20260903173604 | 10 | 231 | 0.0 | 3.2 | 0.00 | 0.46 | 0.00 | 77 | 1011.0 |
| 20260903172604 | 10 | 159 | 0.0 | 1.6 | 0.00 | 0.46 | 0.00 | 77 | 1011.1 |
| 20260903171104 | 9 | 183 | 0.0 | 0.0 | 0.00 | 0.46 | 0.00 | 80 | 1011.0 |
| 20260903165604 | 8 | 165 | 0.0 | 0.0 | 0.00 | 0.46 | 0.00 | 81 | 1011.0 |
| 20260903165104 | 8 | 152 | 0.0 | 1.6 | 0.00 | 0.46 | 0.00 | 80 | 1011.1 |
| 20260903164603 | 8 | 153 | 0.0 | 0.0 | 0.00 | 0.46 | 0.00 | 81 | 1011.2 |
| 20260903163603 | 8 | 160 | 0.0 | 0.0 | 0.00 | 0.46 | 0.00 | 82 | 1011.2 |
| 20260903163104 | 8 | 160 | 0.0 | 0.0 | 0.00 | 0.46 | 0.00 | 81 | 1011.2 |
| 20260903162104 | 8 | 160 | 0.0 | 0.0 | 0.00 | 0.46 | 0.00 | 81 | 1011.0 |
| 20260903161605 | 8 | 160 | 0.0 | 1.6 | 0.00 | 0.46 | 0.00 | 81 | 1011.0 |
| 20260903161104 | 8 | 150 | 0.0 | 0.0 | 0.00 | 0.46 | 0.00 | 81 | 1011.1 |
| 20260903160604 | 8 | 150 | 0.0 | 0.0 | 0.00 | 0.46 | 0.00 | 82 | 1011.3 |
| 20260903160104 | 8 | 150 | 0.0 | 3.2 | 0.00 | 0.46 | 0.00 | 82 | 1011.4 |
| 20260903155103 | 8 | 189 | 0.0 | 0.0 | 0.00 | 0.46 | 0.00 | 82 | 1011.4 |
| 20260903154603 | 8 | 189 | 0.0 | 0.0 | 0.00 | 0.46 | 0.00 | 83 | 1011.4 |
| 20260903154104 | 8 | 189 | 0.0 | 0.0 | 0.00 | 0.46 | 0.00 | 82 | 1011.4 |
| 20260903153603 | 8 | 189 | 0.0 | 0.0 | 0.00 | 0.46 | 0.00 | 83 | 1011.4 |
| 20260903153104 | 7 | 189 | 0.0 | 0.0 | 0.00 | 0.46 | 0.00 | 83 | 1011.4 |
| 20260903152604 | 7 | 189 | 0.0 | 0.0 | 0.00 | 0.46 | 0.00 | 83 | 1011.4 |
| 20260903151604 | 7 | 189 | 0.0 | 0.0 | 0.00 | 0.46 | 0.00 | 84 | 1011.4 |
| 20260903151103 | 7 | 189 | 0.0 | 0.0 | 0.00 | 0.46 | 0.00 | 84 | 1011.4 |
| 20260903150603 | 7 | 189 | 0.0 | 0.0 | 0.00 | 0.46 | 0.00 | 84 | 1011.4 |
| 20260903150104 | 7 | 189 | 0.0 | 0.0 | 0.00 | 0.46 | 0.00 | 84 | 1011.2 |
| 20260903145604 | 7 | 189 | 0.0 | 1.6 | 0.00 | 0.46 | 0.00 | 85 | 1011.3 |
| 20260903145103 | 7 | 189 | 0.0 | 0.0 | 0.00 | 0.46 | 0.00 | 85 | 1011.1 |
| 20260903144603 | 7 | 189 | 0.0 | 0.0 | 0.00 | 0.46 | 0.00 | 85 | 1011.1 |
| 20260903144103 | 7 | 189 | 0.0 | 0.0 | 0.00 | 0.46 | 0.00 | 85 | 1011.2 |
| 20260903143603 | 6 | 189 | 0.0 | 0.0 | 0.00 | 0.46 | 0.00 | 85 | 1011.1 |
| 20260903142103 | 6 | 189 | 0.0 | 0.0 | 0.00 | 0.46 | 0.00 | 85 | 1011.2 |
| 20260903141604 | 6 | 189 | 0.0 | 0.0 | 0.00 | 0.46 | 0.00 | 85 | 1011.1 |
| 20260903141103 | 6 | 189 | 0.0 | 0.0 | 0.00 | 0.46 | 0.00 | 85 | 1011.1 |
| 20260903140604 | 6 | 189 | 0.0 | 0.0 | 0.00 | 0.46 | 0.00 | 85 | 1011.2 |
| 20260903140104 | 6 | 189 | 0.0 | 0.0 | 0.00 | 0.46 | 0.00 | 85 | 1011.2 |
| 20260903135604 | 6 | 189 | 0.0 | 0.0 | 0.00 | 0.46 | 0.00 | 85 | 1011.3 |
| 20260903135103 | 6 | 189 | 0.0 | 0.0 | 0.00 | 0.46 | 0.00 | 84 | 1011.3 |
| 20260903134604 | 6 | 189 | 0.0 | 0.0 | 0.00 | 0.46 | 0.00 | 84 | 1011.3 |
| 20260903134104 | 6 | 189 | 0.0 | 0.0 | 0.00 | 0.46 | 0.00 | 83 | 1011.3 |
| 20260903133603 | 7 | 189 | 0.0 | 0.0 | 0.00 | 0.46 | 0.00 | 83 | 1011.3 |
| 20260903132104 | 6 | 182 | 0.0 | 0.0 | 0.00 | 0.46 | 0.00 | 84 | 1011.1 |
| 20260903131604 | 6 | 182 | 0.0 | 0.0 | 0.00 | 0.46 | 0.00 | 85 | 1011.1 |
| 20260903131104 | 6 | 182 | 0.0 | 0.0 | 0.00 | 0.46 | 0.00 | 85 | 1011.0 |
| 20260903130604 | 6 | 182 | 0.0 | 0.0 | 0.00 | 0.46 | 0.00 | 86 | 1011.0 |
| 20260903125104 | 6 | 182 | 0.0 | 0.0 | 0.00 | 0.46 | 0.00 | 88 | 1010.9 |
| 20260903124103 | 6 | 182 | 0.0 | 0.0 | 0.00 | 0.46 | 0.00 | 89 | 1010.8 |
| 20260903123604 | 6 | 182 | 0.0 | 0.0 | 0.00 | 0.46 | 0.00 | 89 | 1010.7 |
| 20260903123104 | 6 | 182 | 0.0 | 0.0 | 0.00 | 0.46 | 0.00 | 89 | 1010.7 |
| 20260903122603 | 6 | 182 | 0.0 | 0.0 | 0.00 | 0.46 | 0.00 | 90 | 1010.7 |
| 20260903122103 | 6 | 182 | 0.0 | 0.0 | 0.00 | 0.46 | 0.00 | 91 | 1010.8 |
| 20260903121104 | 5 | 182 | 0.0 | 0.0 | 0.00 | 0.46 | 0.00 | 91 | 1010.7 |
| 20260903120604 | 5 | 182 | 0.0 | 0.0 | 0.00 | 0.46 | 0.00 | 91 | 1010.7 |
| 20260903120104 | 5 | 182 | 0.0 | 0.0 | 0.00 | 0.46 | 0.00 | 91 | 1010.8 |
| 20260903115606 | 5 | 182 | 0.0 | 0.0 | 0.00 | 0.46 | 0.00 | 90 | 1010.7 |
| 20260903114604 | 6 | 182 | 0.0 | 0.0 | 0.00 | 0.46 | 0.00 | 89 | 1010.7 |
| 20260903114104 | 6 | 182 | 0.0 | 0.0 | 0.00 | 0.46 | 0.00 | 88 | 1010.5 |
| 20260903113104 | 6 | 182 | 0.0 | 0.0 | 0.00 | 0.46 | 0.00 | 87 | 1010.7 |
| 20260903112604 | 6 | 182 | 0.0 | 0.0 | 0.00 | 0.46 | 0.00 | 87 | 1010.6 |
| 20260903112104 | 6 | 182 | 0.0 | 0.0 | 0.00 | 0.46 | 0.00 | 87 | 1010.5 |
| 20260903111604 | 6 | 182 | 0.0 | 0.0 | 0.00 | 0.46 | 0.00 | 88 | 1010.5 |
| 20260903111104 | 6 | 182 | 0.0 | 0.0 | 0.00 | 0.46 | 0.00 | 88 | 1010.5 |
| 20260903110604 | 7 | 182 | 0.0 | 0.0 | 0.00 | 0.46 | 0.00 | 88 | 1010.5 |
| 20260903110104 | 7 | 182 | 0.0 | 0.0 | 0.00 | 0.46 | 0.00 | 87 | 1010.5 |
| 20260903105604 | 7 | 182 | 0.0 | 0.0 | 0.00 | 0.46 | 0.00 | 87 | 1010.5 |
| 20260903105104 | 7 | 182 | 0.0 | 0.0 | 0.00 | 0.46 | 0.00 | 86 | 1010.6 |
| 20260903104104 | 7 | 182 | 0.0 | 0.0 | 0.00 | 0.46 | 0.00 | 85 | 1010.6 |
| 20260903103604 | 7 | 182 | 0.0 | 0.0 | 0.00 | 0.46 | 0.00 | 84 | 1010.6 |
| 20260903103104 | 7 | 182 | 0.0 | 0.0 | 0.00 | 0.46 | 0.00 | 85 | 1010.6 |
| 20260903102603 | 7 | 182 | 0.0 | 0.0 | 0.00 | 0.46 | 0.00 | 84 | 1010.6 |
| 20260903102104 | 7 | 182 | 0.0 | 0.0 | 0.00 | 0.46 | 0.00 | 85 | 1010.7 |
| 20260903101604 | 7 | 182 | 0.0 | 0.0 | 0.00 | 0.46 | 0.00 | 85 | 1010.7 |
| 20260903101104 | 7 | 182 | 0.0 | 0.0 | 0.00 | 0.46 | 0.00 | 84 | 1010.7 |
| 20260903100604 | 7 | 182 | 0.0 | 0.0 | 0.00 | 0.46 | 0.00 | 85 | 1010.6 |
| 20260903095603 | 7 | 182 | 0.0 | 1.6 | 0.00 | 0.46 | 0.00 | 85 | 1010.3 |
| 20260903095104 | 7 | 212 | 0.0 | 0.0 | 0.00 | 0.46 | 0.00 | 85 | 1010.3 |
| 20260903094103 | 7 | 192 | 0.0 | 1.6 | 0.00 | 0.46 | 0.00 | 85 | 1010.2 |
| 20260903093604 | 7 | 205 | 0.0 | 1.6 | 0.00 | 0.46 | 0.00 | 85 | 1010.4 |
| 20260903093104 | 7 | 212 | 0.0 | 0.0 | 0.00 | 0.46 | 0.00 | 84 | 1010.3 |
| 20260903092603 | 7 | 218 | 0.0 | 1.6 | 0.00 | 0.46 | 0.00 | 84 | 1010.2 |
| 20260903091604 | 7 | 208 | 0.0 | 4.8 | 0.00 | 0.46 | 0.00 | 85 | 1010.0 |
| 20260903091105 | 7 | 213 | 0.0 | 3.2 | 0.00 | 0.46 | 0.00 | 85 | 1010.0 |
| 20260903090604 | 8 | 174 | 0.0 | 4.8 | 0.00 | 0.46 | 0.00 | 84 | 1009.9 |
| 20260903085603 | 8 | 168 | 0.0 | 8.0 | 0.00 | 0.46 | 0.00 | 85 | 1010.1 |
| 20260903085103 | 8 | 171 | 1.6 | 4.8 | 0.00 | 0.46 | 0.00 | 84 | 1010.0 |
| 20260903084604 | 8 | 196 | 1.6 | 4.8 | 0.00 | 0.46 | 0.00 | 85 | 1010.0 |
| 20260903084104 | 8 | 145 | 0.0 | 4.8 | 0.00 | 0.46 | 0.00 | 85 | 1010.2 |
| 20260903083604 | 8 | 160 | 0.0 | 3.2 | 0.00 | 0.46 | 0.00 | 85 | 1010.1 |
| 20260903083104 | 8 | 235 | 0.0 | 4.8 | 0.00 | 0.46 | 0.00 | 84 | 1010.2 |
| 20260903082103 | 8 | 183 | 0.0 | 1.6 | 0.00 | 0.46 | 0.00 | 84 | 1010.0 |
| 20260903081604 | 8 | 182 | 0.0 | 1.6 | 0.00 | 0.46 | 0.00 | 83 | 1010.0 |
| 20260903081104 | 8 | 182 | 0.0 | 4.8 | 0.00 | 0.46 | 0.00 | 82 | 1009.8 |
| 20260903080604 | 8 | 128 | 1.6 | 4.8 | 0.00 | 0.46 | 0.00 | 82 | 1009.7 |
| 20260903080104 | 8 | 200 | 1.6 | 8.0 | 0.00 | 0.46 | 0.00 | 82 | 1009.7 |
| 20260903075604 | 8 | 187 | 1.6 | 8.0 | 0.00 | 0.46 | 0.00 | 82 | 1009.8 |
| 20260903075103 | 8 | 175 | 0.0 | 4.8 | 0.00 | 0.46 | 0.00 | 83 | 1009.6 |
| 20260903074104 | 8 | 182 | 0.0 | 4.8 | 0.00 | 0.46 | 0.00 | 82 | 1009.5 |
| 20260903073604 | 8 | 253 | 1.6 | 4.8 | 0.00 | 0.46 | 0.00 | 83 | 1009.5 |
| 20260903073103 | 8 | 109 | 0.0 | 4.8 | 0.00 | 0.46 | 0.00 | 85 | 1009.6 |
| 20260903072603 | 8 | 229 | 0.0 | 12.9 | 0.00 | 0.46 | 0.00 | 86 | 1009.6 |
| 20260903072104 | 8 | 210 | 1.6 | 4.8 | 0.00 | 0.46 | 0.00 | 86 | 1009.6 |
| 20260903071604 | 8 | 155 | 0.0 | 0.0 | 0.00 | 0.46 | 0.00 | 88 | 1009.6 |
| 20260903071104 | 8 | 178 | 0.0 | 0.0 | 0.00 | 0.46 | 0.00 | 88 | 1009.5 |
| 20260903070604 | 8 | 178 | 0.0 | 0.0 | 0.00 | 0.46 | 0.00 | 88 | 1009.5 |
| 20260903070104 | 8 | 178 | 0.0 | 0.0 | 0.00 | 0.46 | 0.00 | 88 | 1009.5 |
| 20260903065603 | 8 | 178 | 0.0 | 0.0 | 0.00 | 0.46 | 0.46 | 88 | 1009.4 |
| 20260903065104 | 8 | 178 | 0.0 | 0.0 | 0.00 | 0.46 | 0.46 | 87 | 1009.5 |
| 20260903064603 | 8 | 178 | 0.0 | 0.0 | 0.00 | 0.46 | 0.46 | 87 | 1009.4 |
| 20260903064104 | 8 | 178 | 0.0 | 0.0 | 0.00 | 0.46 | 0.46 | 87 | 1009.5 |
| 20260903063604 | 8 | 178 | 0.0 | 0.0 | 0.00 | 0.46 | 0.46 | 87 | 1009.4 |
| 20260903063103 | 9 | 178 | 0.0 | 0.0 | 0.00 | 0.46 | 0.46 | 89 | 1009.2 |
| 20260903062604 | 9 | 178 | 0.0 | 0.0 | 0.00 | 0.46 | 0.46 | 90 | 1009.1 |
| 20260903062104 | 9 | 178 | 0.0 | 0.0 | 0.00 | 0.46 | 0.46 | 90 | 1009.0 |
| 20260903061605 | 9 | 178 | 0.0 | 0.0 | 0.00 | 0.46 | 0.46 | 91 | 1009.2 |
| 20260903060104 | 9 | 178 | 0.0 | 0.0 | 0.00 | 0.46 | 0.46 | 90 | 1009.4 |
| 20260903055104 | 9 | 166 | 0.0 | 4.8 | 0.00 | 0.46 | 0.46 | 89 | 1009.3 |
| 20260903054604 | 9 | 182 | 0.0 | 0.0 | 0.00 | 0.46 | 0.46 | 89 | 1009.3 |
| 20260903054104 | 9 | 182 | 0.0 | 1.6 | 0.00 | 0.46 | 0.46 | 89 | 1009.2 |
| 20260903053104 | 9 | 236 | 1.6 | 4.8 | 0.00 | 0.46 | 0.46 | 88 | 1009.3 |
| 20260903052603 | 9 | 221 | 0.0 | 4.8 | 0.00 | 0.46 | 0.46 | 88 | 1009.2 |
| 20260903052103 | 9 | 156 | 0.0 | 3.2 | 0.00 | 0.46 | 0.46 | 88 | 1009.2 |
| 20260903051104 | 10 | 196 | 0.0 | 3.2 | 0.00 | 0.46 | 0.46 | 87 | 1009.1 |
| 20260903050604 | 10 | 200 | 0.0 | 1.6 | 0.00 | 0.46 | 0.46 | 87 | 1009.0 |
| 20260903050104 | 10 | 199 | 0.0 | 3.2 | 0.00 | 0.46 | 0.46 | 86 | 1008.9 |
| 20260903045604 | 10 | 173 | 0.0 | 3.2 | 0.00 | 0.46 | 0.46 | 85 | 1008.9 |
| 20260903045104 | 10 | 185 | 0.0 | 1.6 | 0.00 | 0.46 | 0.46 | 85 | 1008.9 |
| 20260903044604 | 10 | 169 | 0.0 | 1.6 | 0.00 | 0.46 | 0.46 | 85 | 1008.7 |
| 20260903044104 | 10 | 144 | 0.0 | 0.0 | 0.00 | 0.46 | 0.46 | 85 | 1008.7 |
| 20260903043604 | 10 | 143 | 0.0 | 1.6 | 0.00 | 0.46 | 0.46 | 85 | 1008.8 |
| 20260903041604 | 10 | 129 | 0.0 | 0.0 | 0.00 | 0.46 | 0.46 | 86 | 1008.3 |
| 20260903041104 | 10 | 129 | 0.0 | 0.0 | 0.03 | 0.46 | 0.46 | 87 | 1008.4 |
| 20260903040604 | 10 | 128 | 0.0 | 0.0 | 0.03 | 0.46 | 0.46 | 88 | 1008.3 |
| 20260903035604 | 9 | 130 | 0.0 | 0.0 | 0.03 | 0.46 | 0.46 | 89 | 1008.3 |
| 20260903035104 | 9 | 128 | 0.0 | 0.0 | 0.03 | 0.46 | 0.46 | 89 | 1008.2 |
| 20260903034105 | 9 | 127 | 0.0 | 0.0 | 0.03 | 0.46 | 0.46 | 89 | 1008.2 |
| 20260903033604 | 9 | 125 | 0.0 | 1.6 | 0.03 | 0.46 | 0.46 | 89 | 1008.1 |
| 20260903033104 | 9 | 130 | 0.0 | 1.6 | 0.03 | 0.46 | 0.46 | 89 | 1008.1 |
| 20260903032103 | 9 | 124 | 0.0 | 3.2 | 0.03 | 0.46 | 0.46 | 88 | 1008.1 |
| 20260903031606 | 9 | 158 | 0.0 | 0.0 | 0.03 | 0.46 | 0.46 | 88 | 1008.0 |
| 20260903031103 | 9 | 158 | 0.0 | 0.0 | 0.00 | 0.43 | 0.43 | 86 | 1008.1 |
| 20260903030604 | 9 | 175 | 0.0 | 0.0 | 0.00 | 0.43 | 0.43 | 86 | 1008.1 |
| 20260903030104 | 9 | 175 | 0.0 | 1.6 | 0.00 | 0.43 | 0.43 | 86 | 1008.0 |
| 20260903025604 | 9 | 201 | 0.0 | 1.6 | 0.00 | 0.43 | 0.43 | 86 | 1008.1 |
| 20260903024104 | 10 | 159 | 0.0 | 0.0 | 0.00 | 0.43 | 0.43 | 87 | 1008.0 |
| 20260903023603 | 10 | 157 | 0.0 | 1.6 | 0.00 | 0.43 | 0.43 | 87 | 1008.1 |
| 20260903023104 | 10 | 157 | 0.0 | 3.2 | 0.03 | 0.43 | 0.43 | 87 | 1007.9 |
| 20260903022604 | 10 | 127 | 0.0 | 1.6 | 0.03 | 0.43 | 0.43 | 87 | 1007.8 |
| 20260903022103 | 10 | 183 | 0.0 | 0.0 | 0.05 | 0.43 | 0.43 | 88 | 1008.0 |
| 20260903021603 | 10 | 182 | 0.0 | 1.6 | 0.08 | 0.43 | 0.43 | 87 | 1007.8 |
| 20260903021104 | 10 | 148 | 0.0 | 0.0 | 0.13 | 0.43 | 0.43 | 89 | 1007.6 |
| 20260903020603 | 10 | 150 | 0.0 | 4.8 | 0.15 | 0.43 | 0.43 | 88 | 1007.5 |
| 20260903020104 | 10 | 201 | 0.0 | 1.6 | 0.20 | 0.43 | 0.43 | 87 | 1007.8 |
| 20260903015604 | 10 | 225 | 0.0 | 1.6 | 0.20 | 0.43 | 0.43 | 87 | 1008.5 |
| 20260903015103 | 10 | 250 | 0.0 | 0.0 | 0.23 | 0.43 | 0.43 | 88 | 1008.7 |
| 20260903014604 | 10 | 248 | 0.0 | 0.0 | 0.25 | 0.43 | 0.43 | 88 | 1008.6 |
| 20260903014104 | 11 | 199 | 0.0 | 4.8 | 0.25 | 0.43 | 0.43 | 91 | 1008.7 |
| 20260903013104 | 11 | 145 | 0.0 | 0.0 | 0.23 | 0.41 | 0.41 | 89 | 1008.6 |
| 20260903012603 | 11 | 144 | 0.0 | 0.0 | 0.23 | 0.41 | 0.41 | 90 | 1008.6 |
| 20260903012104 | 11 | 149 | 0.0 | 1.6 | 0.20 | 0.38 | 0.38 | 90 | 1008.5 |
| 20260903011604 | 11 | 242 | 0.0 | 4.8 | 0.18 | 0.36 | 0.36 | 89 | 1008.5 |
| 20260903011104 | 11 | 254 | 0.0 | 0.0 | 0.13 | 0.30 | 0.30 | 89 | 1008.4 |
| 20260903010604 | 11 | 257 | 0.0 | 4.8 | 0.10 | 0.28 | 0.28 | 89 | 1008.3 |
| 20260903010104 | 11 | 95 | 0.0 | 0.0 | 0.05 | 0.23 | 0.23 | 88 | 1008.2 |
| 20260903005603 | 12 | 94 | 0.0 | 0.0 | 0.05 | 0.23 | 0.23 | 88 | 1008.0 |
| 20260903004604 | 12 | 83 | 0.0 | 3.2 | 0.00 | 0.18 | 0.18 | 85 | 1008.0 |
| 20260903004104 | 12 | 129 | 0.0 | 4.8 | 0.00 | 0.18 | 0.18 | 84 | 1007.9 |
| 20260903003604 | 12 | 163 | 0.0 | 4.8 | 0.00 | 0.18 | 0.18 | 82 | 1007.9 |
| 20260903003104 | 12 | 157 | 0.0 | 4.8 | 0.00 | 0.18 | 0.18 | 80 | 1007.9 |
| 20260903002604 | 12 | 174 | 1.6 | 4.8 | 0.00 | 0.18 | 0.18 | 79 | 1007.7 |
| 20260903002104 | 13 | 134 | 1.6 | 16.1 | 0.00 | 0.18 | 0.18 | 77 | 1007.8 |
| 20260903001604 | 13 | 172 | 1.6 | 8.0 | 0.00 | 0.18 | 0.18 | 76 | 1007.8 |
| 20260903001104 | 13 | 215 | 0.0 | 8.0 | 0.00 | 0.18 | 0.18 | 76 | 1007.7 |
| 20260903000604 | 13 | 159 | 0.0 | 8.0 | 0.00 | 0.18 | 0.18 | 75 | 1007.6 |
| 20260903000104 | 13 | 107 | 1.6 | 19.3 | 0.00 | 0.18 | 0.18 | 76 | 1007.5 |
| 20260902235604 | 13 | 138 | 1.6 | 9.7 | 0.00 | 0.18 | 0.18 | 76 | 1007.3 |
| 20260902235104 | 13 | 130 | 0.0 | 8.0 | 0.00 | 0.18 | 0.18 | 77 | 1007.3 |
| 20260902234604 | 13 | 163 | 0.0 | 4.8 | 0.00 | 0.18 | 0.18 | 77 | 1007.2 |
| 20260902234104 | 12 | 156 | 0.0 | 4.8 | 0.00 | 0.18 | 0.18 | 78 | 1007.2 |
| 20260902233104 | 12 | 120 | 0.0 | 4.8 | 0.00 | 0.18 | 0.18 | 80 | 1007.1 |
| 20260902232604 | 12 | 194 | 1.6 | 16.1 | 0.00 | 0.18 | 0.18 | 80 | 1007.0 |
| 20260902232104 | 12 | 149 | 0.0 | 8.0 | 0.00 | 0.18 | 0.18 | 80 | 1006.9 |
| 20260902231603 | 12 | 158 | 1.6 | 8.0 | 0.00 | 0.18 | 0.18 | 81 | 1006.8 |
| 20260902230604 | 12 | 123 | 0.0 | 3.2 | 0.00 | 0.18 | 0.18 | 81 | 1007.0 |
| 20260902230104 | 12 | 119 | 0.0 | 4.8 | 0.00 | 0.18 | 0.18 | 82 | 1007.0 |
| 20260902225603 | 13 | 150 | 0.0 | 0.0 | 0.00 | 0.18 | 0.18 | 82 | 1007.0 |
| 20260902225104 | 13 | 201 | 0.0 | 9.7 | 0.00 | 0.18 | 0.18 | 82 | 1007.0 |
| 20260902224604 | 13 | 172 | 0.0 | 3.2 | 0.00 | 0.18 | 0.18 | 82 | 1007.0 |
| 20260902223604 | 12 | 121 | 0.0 | 3.2 | 0.00 | 0.18 | 0.18 | 81 | 1006.7 |
| 20260902223104 | 12 | 208 | 0.0 | 3.2 | 0.00 | 0.18 | 0.18 | 82 | 1006.6 |
| 20260902222604 | 12 | 169 | 1.6 | 11.3 | 0.00 | 0.18 | 0.18 | 82 | 1006.4 |
| 20260902222104 | 12 | 198 | 1.6 | 4.8 | 0.00 | 0.18 | 0.18 | 83 | 1006.3 |
| 20260902221604 | 12 | 196 | 0.0 | 4.8 | 0.00 | 0.18 | 0.18 | 83 | 1006.2 |
| 20260902221104 | 12 | 166 | 0.0 | 4.8 | 0.00 | 0.18 | 0.18 | 84 | 1006.2 |
| 20260902220604 | 12 | 191 | 0.0 | 4.8 | 0.00 | 0.18 | 0.18 | 84 | 1006.1 |
| 20260902220104 | 12 | 219 | 1.6 | 9.7 | 0.00 | 0.18 | 0.18 | 82 | 1006.3 |
| 20260902215604 | 12 | 229 | 0.0 | 11.3 | 0.00 | 0.18 | 0.18 | 83 | 1006.3 |
| 20260902215104 | 12 | 186 | 0.0 | 3.2 | 0.00 | 0.18 | 0.18 | 83 | 1006.2 |
| 20260902214605 | 12 | 182 | 1.6 | 12.9 | 0.03 | 0.18 | 0.18 | 83 | 1006.3 |
| 20260902214104 | 12 | 150 | 0.0 | 8.0 | 0.03 | 0.18 | 0.18 | 83 | 1006.4 |
| 20260902213603 | 12 | 163 | 1.6 | 4.8 | 0.03 | 0.18 | 0.18 | 83 | 1006.5 |
| 20260902213104 | 12 | 207 | 1.6 | 8.0 | 0.03 | 0.18 | 0.18 | 83 | 1006.5 |
| 20260902212604 | 12 | 73 | 1.6 | 8.0 | 0.03 | 0.18 | 0.18 | 83 | 1006.5 |
| 20260902212104 | 12 | 158 | 0.0 | 3.2 | 0.03 | 0.18 | 0.18 | 84 | 1006.6 |
| 20260902211604 | 12 | 143 | 1.6 | 14.5 | 0.03 | 0.18 | 0.18 | 84 | 1006.5 |
| 20260902211104 | 12 | 156 | 0.0 | 4.8 | 0.03 | 0.18 | 0.18 | 85 | 1006.6 |
| 20260902210604 | 11 | 132 | 0.0 | 9.7 | 0.03 | 0.18 | 0.18 | 85 | 1006.5 |
| 20260902210105 | 11 | 214 | 0.0 | 4.8 | 0.05 | 0.18 | 0.18 | 85 | 1006.4 |
| 20260902205604 | 11 | 174 | 0.0 | 4.8 | 0.05 | 0.18 | 0.18 | 86 | 1006.4 |
| 20260902204604 | 11 | 120 | 0.0 | 4.8 | 0.05 | 0.15 | 0.15 | 86 | 1006.3 |
| 20260902204104 | 11 | 161 | 0.0 | 3.2 | 0.05 | 0.15 | 0.15 | 86 | 1006.3 |
| 20260902203604 | 11 | 170 | 0.0 | 1.6 | 0.05 | 0.15 | 0.15 | 86 | 1006.2 |
| 20260902203104 | 11 | 196 | 3.2 | 12.9 | 0.05 | 0.15 | 0.15 | 85 | 1006.2 |
| 20260902202604 | 11 | 101 | 1.6 | 8.0 | 0.05 | 0.15 | 0.15 | 86 | 1006.2 |
| 20260902202104 | 11 | 177 | 1.6 | 4.8 | 0.08 | 0.15 | 0.15 | 86 | 1006.3 |
| 20260902201603 | 10 | 160 | 1.6 | 8.0 | 0.08 | 0.15 | 0.15 | 87 | 1006.2 |
| 20260902201104 | 10 | 135 | 1.6 | 8.0 | 0.10 | 0.15 | 0.15 | 86 | 1006.4 |